QPF
0.00 0.00 0.00 0.00 0.00 0.00 0.00 0.00 0.00 0.00 0.00 0.00 0.00 0.00 0.00 0.00 0.00 0.00 0.00 0.00 0.00 0.00 0.00 0.00 0.00 0.00 0.00 0.00 0.00 0.00 0.00 0.00 0.00 0.00 0.00 0.01 0.01 0.01 0.03 0.03 0.02 0.03 0.05 0.04
0.00 0.00 0.00 0.00 0.00 0.00 0.00 0.00 0.00 0.00 0.00 0.00 0.00 0.00 0.00 0.00 0.00 0.00 0.00 0.00 0.00 0.00 0.00 0.00 0.00 0.00 0.00 0.00 0.00 0.00 0.00 0.00 0.00 0.00 0.00 0.00 0.00 0.01 0.02 0.04 0.04 0.03 0.03 0.03
0.00 0.00 0.00 0.00 0.00 0.00 0.00 0.00 0.00 0.00 0.00 0.00 0.00 0.00 0.00 0.00 0.00 0.00 0.00 0.00 0.00 0.00 0.00 0.00 0.00 0.00 0.00 0.00 0.00 0.00 0.00 0.00 0.00 0.00 0.00 0.00 0.00 0.01 0.01 0.02 0.02 0.02 0.02 0.02
0.00 0.00 0.00 0.00 0.00 0.00 0.00 0.00 0.00 0.00 0.00 0.00 0.00 0.00 0.00 0.00 0.00 0.00 0.00 0.00 0.00 0.00 0.00 0.00 0.00 0.00 0.00 0.00 0.00 0.00 0.00 0.00 0.00 0.00 0.00 0.00 0.00 0.01 0.01 0.01 0.01 0.01 0.01 0.02
0.00 0.00 0.00 0.00 0.00 0.00 0.00 0.00 0.00 0.00 0.00 0.00 0.00 0.00 0.00 0.00 0.00 0.00 0.00 0.00 0.00 0.00 0.00 0.00 0.00 0.00 0.00 0.00 0.00 0.00 0.00 0.00 0.00 0.00 0.00 0.00 0.00 0.00 0.00 0.00 0.01 0.01 0.01 0.01
0.00 0.00 0.00 0.00 0.00 0.00 0.00 0.00 0.00 0.00 0.00 0.00 0.00 0.00 0.00 0.00 0.00 0.00 0.00 0.00 0.00 0.00 0.00 0.00 0.00 0.00 0.00 0.00 0.00 0.00 0.00 0.00 0.00 0.00 0.00 0.00 0.00 0.00 0.00 0.00 0.00 0.00 0.00 0.00
0.00 0.00 0.00 0.00 0.00 0.00 0.00 0.00 0.00 0.00 0.00 0.00 0.00 0.00 0.00 0.00 0.00 0.00 0.00 0.00 0.00 0.00 0.00 0.00 0.00 0.00 0.00 0.00 0.00 0.00 0.00 0.00 0.00 0.00 0.00 0.00 0.00 0.00 0.00 0.00 0.00 0.00 0.00 0.00
0.00 0.00 0.00 0.00 0.00 0.00 0.00 0.00 0.00 0.00 0.00 0.00 0.00 0.00 0.00 0.00 0.00 0.00 0.00 0.00 0.00 0.00 0.00 0.00 0.00 0.00 0.00 0.00 0.00 0.00 0.00 0.00 0.00 0.00 0.00 0.00 0.00 0.00 0.00 0.00 0.00 0.00 0.00 0.00
0.00 0.00 0.00 0.00 0.00 0.00 0.00 0.00 0.00 0.00 0.00 0.00 0.00 0.00 0.00 0.00 0.00 0.00 0.00 0.00 0.00 0.00 0.00 0.00 0.00 0.00 0.00 0.00 0.00 0.00 0.00 0.00 0.00 0.00 0.00 0.00 0.00 0.00 0.00 0.00 0.00 0.00 0.00 0.00
0.00 0.00 0.00 0.00 0.00 0.00 0.00 0.00 0.00 0.00 0.00 0.00 0.00 0.00 0.00 0.00 0.00 0.00 0.00 0.00 0.00 0.00 0.00 0.00 0.00 0.00 0.00 0.00 0.00 0.00 0.00 0.00 0.00 0.00 0.00 0.00 0.00 0.00 0.00 0.00 0.00 0.00 0.00 0.00
0.00 0.00 0.00 0.00 0.00 0.00 0.00 0.00 0.00 0.00 0.00 0.00 0.00 0.00 0.00 0.00 0.00 0.00 0.00 0.00 0.00 0.00 0.00 0.00 0.00 0.00 0.00 0.00 0.00 0.00 0.00 0.00 0.00 0.00 0.00 0.00 0.00 0.00 0.00 0.00 0.00 0.00 0.00 0.00
0.00 0.00 0.00 0.00 0.00 0.00 0.00 0.00 0.00 0.00 0.00 0.00 0.00 0.00 0.00 0.00 0.00 0.00 0.00 0.00 0.00 0.00 0.00 0.00 0.00 0.00 0.00 0.00 0.00 0.00 0.00 0.00 0.00 0.00 0.00 0.00 0.00 0.00 0.00 0.00 0.00 0.00 0.00 0.00
0.00 0.00 0.00 0.00 0.00 0.00 0.00 0.00 0.00 0.00 0.00 0.00 0.00 0.00 0.00 0.00 0.00 0.00 0.00 0.00 0.00 0.00 0.00 0.00 0.00 0.00 0.00 0.00 0.00 0.00 0.00 0.00 0.00 0.00 0.00 0.00 0.00 0.00 0.00 0.00 0.00 0.00 0.00 0.00
0.00 0.00 0.00 0.00 0.00 0.00 0.00 0.00 0.00 0.00 0.00 0.00 0.00 0.00 0.00 0.00 0.00 0.00 0.00 0.00 0.00 0.00 0.00 0.00 0.00 0.00 0.00 0.00 0.00 0.00 0.00 0.00 0.00 0.00 0.00 0.00 0.00 0.00 0.00 0.00 0.00 0.00 0.00 0.00
0.00 0.00 0.00 0.00 0.00 0.00 0.00 0.00 0.00 0.00 0.00 0.00 0.00 0.00 0.00 0.00 0.00 0.00 0.00 0.00 0.00 0.00 0.00 0.00 0.00 0.00 0.00 0.00 0.00 0.00 0.00 0.00 0.00 0.00 0.00 0.00 0.00 0.00 0.00 0.00 0.00 0.00 0.00 0.00
0.00 0.00 0.00 0.00 0.00 0.00 0.00 0.00 0.00 0.00 0.00 0.00 0.00 0.00 0.00 0.00 0.00 0.00 0.00 0.00 0.00 0.00 0.00 0.00 0.00 0.00 0.00 0.00 0.00 0.00 0.00 0.00 0.00 0.00 0.00 0.00 0.00 0.00 0.00 0.00 0.00 0.00 0.00 0.00
0.00 0.00 0.00 0.00 0.00 0.00 0.00 0.00 0.00 0.00 0.00 0.00 0.00 0.00 0.00 0.00 0.00 0.00 0.00 0.00 0.00 0.00 0.00 0.00 0.00 0.00 0.00 0.00 0.00 0.00 0.00 0.00 0.00 0.00 0.00 0.00 0.00 0.00 0.00 0.00 0.00 0.00 0.00 0.00
0.00 0.00 0.00 0.00 0.00 0.00 0.00 0.00 0.00 0.00 0.00 0.00 0.00 0.00 0.00 0.00 0.00 0.00 0.00 0.00 0.00 0.00 0.00 0.00 0.00 0.00 0.00 0.00 0.00 0.00 0.00 0.00 0.00 0.00 0.00 0.00 0.00 0.00 0.00 0.00 0.00 0.00 0.00 0.00
0.00 0.00 0.00 0.00 0.00 0.00 0.00 0.00 0.00 0.00 0.00 0.00 0.00 0.00 0.00 0.00 0.00 0.00 0.00 0.00 0.00 0.00 0.00 0.00 0.00 0.00 0.00 0.00 0.00 0.00 0.00 0.00 0.00 0.00 0.00 0.00 0.00 0.00 0.00 0.00 0.00 0.00 0.00 0.00
0.00 0.00 0.00 0.00 0.00 0.00 0.00 0.00 0.00 0.00 0.00 0.00 0.00 0.00 0.00 0.00 0.00 0.00 0.00 0.00 0.00 0.00 0.00 0.00 0.00 0.00 0.00 0.00 0.00 0.00 0.00 0.00 0.00 0.00 0.00 0.00 0.00 0.00 0.00 0.00 0.00 0.00 0.00 0.00
0.00 0.00 0.00 0.00 0.00 0.00 0.00 0.00 0.00 0.00 0.00 0.00 0.00 0.00 0.00 0.00 0.00 0.00 0.00 0.00 0.00 0.00 0.00 0.00 0.00 0.00 0.00 0.00 0.00 0.00 0.00 0.00 0.00 0.00 0.00 0.00 0.00 0.00 0.00 0.00 0.00 0.00 0.00 0.00
0.00 0.00 0.00 0.00 0.00 0.00 0.00 0.00 0.00 0.00 0.00 0.00 0.00 0.00 0.00 0.00 0.00 0.00 0.00 0.00 0.00 0.00 0.00 0.00 0.00 0.00 0.00 0.00 0.00 0.00 0.00 0.00 0.00 0.00 0.00 0.00 0.00 0.00 0.00 0.00 0.00 0.00 0.00 0.00
0.00 0.00 0.00 0.00 0.00 0.00 0.00 0.00 0.00 0.00 0.00 0.00 0.00 0.00 0.00 0.00 0.00 0.00 0.00 0.00 0.00 0.00 0.00 0.00 0.00 0.00 0.00 0.00 0.00 0.00 0.00 0.00 0.00 0.00 0.00 0.00 0.00 0.00 0.00 0.00 0.00 0.00 0.00 0.00
0.00 0.00 0.00 0.00 0.00 0.00 0.00 0.00 0.00 0.00 0.00 0.00 0.00 0.00 0.00 0.00 0.00 0.00 0.00 0.00 0.00 0.00 0.00 0.00 0.00 0.00 0.00 0.00 0.00 0.00 0.00 0.00 0.00 0.00 0.00 0.00 0.00 0.00 0.00 0.00 0.00 0.00 0.00 0.00
0.00 0.00 0.00 0.00 0.00 0.00 0.00 0.00 0.00 0.00 0.00 0.00 0.00 0.00 0.00 0.00 0.00 0.00 0.00 0.00 0.00 0.00 0.00 0.00 0.00 0.00 0.00 0.00 0.00 0.00 0.00 0.00 0.00 0.00 0.00 0.00 0.00 0.00 0.00 0.00 0.00 0.00 0.00 0.00
0.00 0.00 0.00 0.00 0.00 0.00 0.00 0.00 0.00 0.00 0.00 0.00 0.00 0.00 0.00 0.00 0.00 0.00 0.00 0.00 0.00 0.00 0.00 0.00 0.00 0.00 0.00 0.00 0.00 0.00 0.00 0.01 0.01 0.01 0.00 0.00 0.00 0.00 0.00 0.00 0.00 0.00 0.00 0.00
0.00 0.00 0.00 0.00 0.00 0.00 0.00 0.00 0.00 0.00 0.00 0.00 0.00 0.00 0.00 0.00 0.00 0.00 0.00 0.00 0.00 0.00 0.00 0.00 0.00 0.00 0.00 0.00 0.00 0.01 0.01 0.01 0.01 0.01 0.01 0.01 0.01 0.01 0.01 0.01 0.01 0.00 0.00 0.00
MSLP
1020.43 1020.91 1021.40 1021.87 1022.28 1022.56 1022.68 1022.60 1022.33 1021.88 1021.30 1020.64 1019.98 1019.36 1018.84 1018.44 1018.16 1018.00 1017.94 1017.93 1017.95 1017.97 1017.99 1018.00 1018.00 1017.99 1017.97 1017.95 1017.90 1017.83 1017.71 1017.54 1017.31 1017.02 1016.67 1016.28 1015.86 1015.43 1014.98 1014.51 1014.03 1013.51 1012.94 1012.33
1020.59 1020.93 1021.24 1021.49 1021.65 1021.71 1021.63 1021.43 1021.10 1020.67 1020.19 1019.68 1019.19 1018.75 1018.39 1018.11 1017.91 1017.78 1017.70 1017.66 1017.65 1017.65 1017.67 1017.70 1017.75 1017.82 1017.89 1017.95 1017.99 1017.98 1017.90 1017.75 1017.53 1017.24 1016.89 1016.51 1016.12 1015.72 1015.33 1014.94 1014.53 1014.09 1013.61 1013.07
1020.83 1021.01 1021.11 1021.12 1021.04 1020.86 1020.59 1020.25 1019.87 1019.46 1019.06 1018.69 1018.37 1018.10 1017.89 1017.73 1017.61 1017.52 1017.44 1017.38 1017.34 1017.32 1017.34 1017.40 1017.49 1017.62 1017.77 1017.91 1018.01 1018.06 1018.02 1017.89 1017.68 1017.39 1017.06 1016.70 1016.34 1015.99 1015.66 1015.34 1015.02 1014.68 1014.29 1013.84
1021.09 1021.09 1020.97 1020.74 1020.41 1020.02 1019.57 1019.12 1018.68 1018.29 1017.96 1017.71 1017.53 1017.42 1017.35 1017.30 1017.26 1017.22 1017.16 1017.10 1017.05 1017.03 1017.05 1017.12 1017.26 1017.43 1017.64 1017.83 1017.98 1018.07 1018.06 1017.95 1017.76 1017.49 1017.17 1016.84 1016.53 1016.24 1015.98 1015.75 1015.51 1015.26 1014.97 1014.61
1021.27 1021.07 1020.74 1020.29 1019.75 1019.16 1018.57 1018.02 1017.54 1017.16 1016.90 1016.75 1016.70 1016.71 1016.77 1016.83 1016.87 1016.88 1016.87 1016.82 1016.79 1016.77 1016.81 1016.90 1017.06 1017.27 1017.50 1017.73 1017.91 1018.02 1018.03 1017.95 1017.77 1017.53 1017.25 1016.96 1016.70 1016.48 1016.30 1016.15 1016.00 1015.83 1015.62 1015.33
1021.26 1020.88 1020.35 1019.72 1019.01 1018.28 1017.59 1016.97 1016.47 1016.11 1015.90 1015.83 1015.88 1016.00 1016.16 1016.31 1016.44 1016.51 1016.55 1016.54 1016.54 1016.55 1016.60 1016.72 1016.90 1017.12 1017.37 1017.61 1017.80 1017.91 1017.94 1017.87 1017.72 1017.51 1017.28 1017.05 1016.86 1016.71 1016.60 1016.53 1016.45 1016.36 1016.20 1015.97
1020.97 1020.43 1019.77 1019.00 1018.19 1017.38 1016.63 1015.98 1015.48 1015.15 1014.99 1014.98 1015.10 1015.30 1015.54 1015.77 1015.96 1016.10 1016.19 1016.24 1016.27 1016.32 1016.41 1016.55 1016.74 1016.97 1017.22 1017.45 1017.64 1017.76 1017.79 1017.74 1017.62 1017.46 1017.28 1017.11 1016.99 1016.91 1016.87 1016.85 1016.83 1016.79 1016.67 1016.48
1020.37 1019.74 1018.99 1018.17 1017.32 1016.49 1015.74 1015.10 1014.63 1014.33 1014.21 1014.24 1014.40 1014.65 1014.92 1015.20 1015.44 1015.63 1015.78 1015.88 1015.97 1016.06 1016.18 1016.35 1016.55 1016.78 1017.02 1017.24 1017.42 1017.53 1017.57 1017.55 1017.46 1017.35 1017.22 1017.12 1017.06 1017.03 1017.05 1017.08 1017.10 1017.08 1016.99 1016.81
1019.53 1018.87 1018.11 1017.30 1016.47 1015.69 1014.98 1014.40 1013.96 1013.70 1013.60 1013.64 1013.81 1014.06 1014.34 1014.63 1014.89 1015.11 1015.30 1015.44 1015.57 1015.71 1015.87 1016.05 1016.27 1016.50 1016.74 1016.95 1017.12 1017.23 1017.28 1017.28 1017.23 1017.16 1017.10 1017.05 1017.04 1017.06 1017.11 1017.16 1017.20 1017.19 1017.10 1016.93
1018.58 1017.94 1017.24 1016.50 1015.76 1015.07 1014.44 1013.93 1013.54 1013.30 1013.20 1013.23 1013.37 1013.57 1013.82 1014.08 1014.32 1014.54 1014.73 1014.91 1015.07 1015.24 1015.43 1015.63 1015.86 1016.10 1016.33 1016.53 1016.70 1016.83 1016.90 1016.92 1016.92 1016.90 1016.88 1016.89 1016.91 1016.97 1017.03 1017.09 1017.11 1017.10 1017.01 1016.84
1017.67 1017.12 1016.52 1015.90 1015.28 1014.70 1014.18 1013.74 1013.39 1013.16 1013.04 1013.02 1013.09 1013.21 1013.38 1013.57 1013.76 1013.94 1014.11 1014.28 1014.46 1014.64 1014.84 1015.06 1015.30 1015.54 1015.77 1015.99 1016.16 1016.30 1016.40 1016.47 1016.51 1016.54 1016.57 1016.61 1016.67 1016.73 1016.79 1016.84 1016.85 1016.82 1016.72 1016.56
1016.96 1016.52 1016.06 1015.58 1015.10 1014.64 1014.21 1013.84 1013.52 1013.28 1013.12 1013.02 1012.99 1013.00 1013.05 1013.13 1013.23 1013.34 1013.47 1013.60 1013.75 1013.93 1014.13 1014.35 1014.59 1014.83 1015.07 1015.29 1015.49 1015.65 1015.79 1015.90 1015.99 1016.08 1016.15 1016.23 1016.30 1016.37 1016.43 1016.45 1016.44 1016.39 1016.28 1016.13
1016.54 1016.23 1015.90 1015.56 1015.21 1014.86 1014.51 1014.19 1013.89 1013.62 1013.39 1013.20 1013.05 1012.94 1012.86 1012.81 1012.80 1012.81 1012.85 1012.93 1013.03 1013.17 1013.35 1013.55 1013.77 1014.00 1014.24 1014.47 1014.68 1014.88 1015.06 1015.23 1015.37 1015.51 1015.63 1015.74 1015.84 1015.91 1015.96 1015.97 1015.94 1015.87 1015.76 1015.63
1016.41 1016.22 1016.02 1015.79 1015.55 1015.29 1015.02 1014.72 1014.42 1014.12 1013.82 1013.54 1013.27 1013.03 1012.82 1012.64 1012.50 1012.40 1012.35 1012.33 1012.36 1012.44 1012.55 1012.71 1012.89 1013.09 1013.31 1013.54 1013.77 1014.00 1014.22 1014.44 1014.64 1014.83 1015.01 1015.16 1015.29 1015.37 1015.42 1015.43 1015.39 1015.31 1015.21 1015.10
1016.52 1016.43 1016.33 1016.20 1016.04 1015.85 1015.62 1015.35 1015.05 1014.71 1014.36 1013.99 1013.63 1013.28 1012.96 1012.66 1012.40 1012.19 1012.02 1011.90 1011.83 1011.81 1011.84 1011.91 1012.02 1012.17 1012.35 1012.56 1012.78 1013.03 1013.28 1013.55 1013.80 1014.06 1014.29 1014.49 1014.65 1014.77 1014.83 1014.85 1014.82 1014.75 1014.66 1014.58
1016.76 1016.75 1016.73 1016.67 1016.58 1016.43 1016.24 1015.99 1015.69 1015.34 1014.95 1014.54 1014.12 1013.70 1013.28 1012.89 1012.53 1012.21 1011.93 1011.69 1011.51 1011.37 1011.27 1011.23 1011.24 1011.30 1011.41 1011.56 1011.76 1012.00 1012.27 1012.56 1012.87 1013.17 1013.46 1013.72 1013.93 1014.09 1014.19 1014.23 1014.22 1014.18 1014.12 1014.06
1017.02 1017.08 1017.11 1017.11 1017.07 1016.96 1016.80 1016.58 1016.30 1015.96 1015.58 1015.15 1014.71 1014.25 1013.79 1013.34 1012.91 1012.49 1012.11 1011.75 1011.43 1011.15 1010.92 1010.74 1010.61 1010.55 1010.55 1010.62 1010.76 1010.96 1011.22 1011.53 1011.86 1012.20 1012.54 1012.85 1013.11 1013.32 1013.47 1013.55 1013.59 1013.58 1013.55 1013.52
1017.23 1017.34 1017.42 1017.46 1017.46 1017.40 1017.28 1017.09 1016.85 1016.55 1016.20 1015.81 1015.39 1014.94 1014.47 1013.99 1013.51 1013.02 1012.54 1012.07 1011.62 1011.20 1010.81 1010.47 1010.19 1009.97 1009.84 1009.80 1009.85 1009.98 1010.20 1010.48 1010.81 1011.17 1011.54 1011.89 1012.19 1012.45 1012.65 1012.78 1012.86 1012.89 1012.90 1012.90
1017.35 1017.51 1017.63 1017.71 1017.75 1017.73 1017.66 1017.53 1017.34 1017.10 1016.82 1016.48 1016.11 1015.70 1015.26 1014.79 1014.28 1013.75 1013.20 1012.63 1012.06 1011.49 1010.95 1010.44 1010.00 1009.63 1009.34 1009.16 1009.09 1009.13 1009.27 1009.50 1009.80 1010.14 1010.51 1010.87 1011.20 1011.49 1011.72 1011.90 1012.01 1012.08 1012.12 1012.15
1017.43 1017.62 1017.78 1017.90 1017.97 1017.99 1017.97 1017.89 1017.77 1017.61 1017.40 1017.14 1016.84 1016.49 1016.09 1015.65 1015.15 1014.59 1013.99 1013.35 1012.68 1011.99 1011.31 1010.66 1010.06 1009.53 1009.10 1008.78 1008.58 1008.50 1008.54 1008.68 1008.91 1009.20 1009.53 1009.87 1010.19 1010.48 1010.72 1010.91 1011.05 1011.14 1011.20 1011.24
1017.51 1017.73 1017.92 1018.06 1018.16 1018.21 1018.23 1018.21 1018.15 1018.05 1017.92 1017.74 1017.51 1017.23 1016.89 1016.48 1016.00 1015.45 1014.83 1014.14 1013.40 1012.64 1011.86 1011.09 1010.37 1009.71 1009.15 1008.69 1008.36 1008.15 1008.07 1008.11 1008.23 1008.44 1008.69 1008.97 1009.24 1009.50 1009.71 1009.89 1010.02 1010.11 1010.17 1010.21
1017.66 1017.89 1018.08 1018.23 1018.34 1018.42 1018.46 1018.48 1018.46 1018.42 1018.35 1018.23 1018.07 1017.86 1017.57 1017.21 1016.77 1016.23 1015.62 1014.92 1014.16 1013.35 1012.52 1011.69 1010.89 1010.15 1009.48 1008.92 1008.48 1008.15 1007.95 1007.86 1007.86 1007.95 1008.09 1008.26 1008.45 1008.63 1008.79 1008.91 1009.01 1009.07 1009.11 1009.14
1017.87 1018.10 1018.28 1018.42 1018.53 1018.61 1018.66 1018.69 1018.70 1018.69 1018.66 1018.59 1018.48 1018.31 1018.08 1017.76 1017.36 1016.87 1016.29 1015.62 1014.88 1014.08 1013.25 1012.41 1011.58 1010.80 1010.08 1009.45 1008.92 1008.49 1008.18 1007.96 1007.83 1007.78 1007.79 1007.84 1007.90 1007.97 1008.04 1008.08 1008.11 1008.13 1008.13 1008.12
1018.14 1018.34 1018.50 1018.61 1018.70 1018.76 1018.80 1018.83 1018.85 1018.85 1018.83 1018.79 1018.70 1018.57 1018.38 1018.11 1017.75 1017.32 1016.79 1016.18 1015.49 1014.75 1013.96 1013.16 1012.36 1011.59 1010.87 1010.21 1009.63 1009.14 1008.73 1008.40 1008.15 1007.96 1007.83 1007.73 1007.66 1007.60 1007.55 1007.50 1007.45 1007.39 1007.34 1007.29
1018.39 1018.55 1018.68 1018.76 1018.82 1018.85 1018.87 1018.88 1018.88 1018.88 1018.86 1018.82 1018.75 1018.64 1018.47 1018.24 1017.94 1017.56 1017.10 1016.56 1015.96 1015.30 1014.60 1013.88 1013.15 1012.43 1011.75 1011.10 1010.51 1009.98 1009.50 1009.09 1008.73 1008.42 1008.16 1007.92 1007.72 1007.54 1007.37 1007.21 1007.07 1006.94 1006.82 1006.72
1018.55 1018.67 1018.76 1018.81 1018.84 1018.84 1018.84 1018.83 1018.81 1018.79 1018.76 1018.71 1018.64 1018.54 1018.39 1018.18 1017.92 1017.60 1017.21 1016.75 1016.24 1015.69 1015.09 1014.47 1013.84 1013.21 1012.59 1011.99 1011.42 1010.88 1010.37 1009.91 1009.47 1009.07 1008.69 1008.35 1008.03 1007.74 1007.46 1007.21 1006.99 1006.79 1006.62 1006.47
1018.54 1018.64 1018.70 1018.73 1018.73 1018.72 1018.70 1018.67 1018.64 1018.60 1018.56 1018.50 1018.42 1018.31 1018.16 1017.98 1017.75 1017.46 1017.13 1016.75 1016.33 1015.87 1015.38 1014.87 1014.34 1013.80 1013.27 1012.73 1012.20 1011.69 1011.18 1010.69 1010.21 1009.75 1009.30 1008.88 1008.48 1008.10 1007.75 1007.44 1007.15 1006.90 1006.69 1006.50
Thickness
5706 5711 5709 5708 5706 5696 5691 5686 5679 5688 5690 5704 5709 5708 5707 5705 5701 5697 5693 5690 5686 5681 5677 5674 5670 5666 5662 5658 5654 5650 5646 5642 5639 5636 5635 5633 5631 5630 5629 5628 5628 5628 5628 5629
5709 5711 5712 5709 5711 5704 5700 5699 5695 5695 5699 5717 5718 5715 5711 5708 5704 5700 5697 5694 5691 5687 5683 5679 5674 5670 5665 5661 5657 5653 5648 5645 5641 5639 5637 5634 5632 5630 5629 5627 5627 5626 5626 5626
5695 5703 5709 5703 5715 5710 5710 5710 5707 5702 5712 5722 5720 5717 5715 5713 5709 5705 5703 5699 5695 5691 5687 5683 5679 5674 5669 5665 5660 5656 5651 5648 5644 5641 5638 5636 5634 5631 5628 5626 5625 5624 5624 5624
5688 5701 5696 5712 5731 5726 5719 5721 5718 5720 5723 5724 5724 5725 5724 5720 5715 5711 5708 5704 5700 5696 5692 5688 5684 5679 5674 5668 5663 5659 5654 5650 5647 5643 5640 5638 5635 5632 5629 5627 5625 5623 5622 5622
5681 5688 5694 5718 5732 5727 5723 5725 5732 5726 5729 5729 5728 5725 5724 5727 5723 5719 5715 5711 5706 5702 5697 5693 5688 5683 5677 5671 5666 5662 5658 5654 5650 5646 5643 5640 5637 5634 5631 5628 5626 5624 5622 5621
5681 5691 5692 5716 5737 5738 5731 5722 5739 5735 5732 5728 5723 5711 5718 5733 5729 5724 5720 5715 5710 5706 5700 5695 5691 5685 5679 5674 5669 5665 5662 5658 5654 5650 5646 5642 5639 5636 5633 5630 5627 5625 5623 5621
5681 5686 5694 5723 5735 5736 5714 5718 5743 5740 5736 5728 5723 5726 5731 5734 5731 5728 5723 5719 5714 5708 5702 5699 5694 5687 5681 5677 5673 5670 5666 5662 5658 5654 5650 5646 5642 5638 5635 5632 5629 5626 5624 5622
5678 5683 5698 5734 5731 5724 5727 5741 5744 5742 5739 5733 5732 5734 5734 5733 5730 5727 5723 5719 5715 5709 5705 5701 5696 5689 5684 5680 5679 5674 5669 5665 5661 5657 5653 5650 5645 5641 5638 5634 5631 5628 5625 5623
5697 5706 5724 5729 5731 5735 5737 5737 5741 5740 5741 5737 5734 5732 5732 5731 5728 5726 5723 5719 5715 5710 5706 5702 5697 5693 5687 5686 5682 5676 5671 5667 5663 5660 5656 5652 5648 5644 5640 5637 5633 5630 5627 5624
5702 5716 5723 5727 5728 5731 5734 5736 5739 5740 5740 5737 5733 5733 5731 5729 5726 5724 5722 5719 5715 5710 5706 5703 5700 5696 5693 5690 5684 5679 5674 5670 5665 5662 5658 5654 5650 5647 5643 5640 5636 5633 5630 5627
5705 5713 5719 5727 5724 5726 5731 5734 5735 5737 5736 5735 5732 5730 5729 5726 5725 5724 5722 5719 5715 5711 5708 5706 5703 5699 5696 5691 5686 5680 5676 5672 5668 5664 5660 5656 5653 5649 5647 5644 5640 5637 5634 5630
5702 5707 5705 5711 5716 5719 5723 5726 5729 5730 5730 5730 5728 5727 5726 5724 5724 5722 5720 5717 5713 5711 5708 5707 5704 5701 5698 5694 5688 5683 5678 5674 5670 5666 5662 5658 5655 5652 5651 5648 5646 5643 5640 5636
5697 5701 5702 5705 5708 5710 5714 5717 5720 5721 5721 5721 5722 5721 5721 5720 5719 5718 5716 5714 5712 5711 5710 5707 5704 5702 5700 5696 5691 5685 5681 5677 5673 5668 5665 5661 5657 5654 5652 5651 5650 5647 5645 5642
5693 5695 5696 5696 5696 5700 5704 5708 5710 5711 5711 5712 5713 5714 5714 5713 5713 5712 5712 5713 5712 5710 5708 5706 5703 5702 5702 5697 5692 5688 5684 5681 5676 5671 5668 5664 5660 5657 5654 5651 5649 5648 5647 5645
5684 5685 5684 5685 5687 5690 5693 5697 5699 5698 5699 5700 5702 5703 5704 5704 5705 5706 5708 5708 5707 5706 5705 5703 5701 5702 5701 5697 5693 5689 5685 5681 5678 5674 5670 5666 5662 5659 5655 5653 5650 5648 5647 5646
5674 5674 5674 5675 5675 5677 5679 5681 5682 5682 5684 5686 5688 5690 5692 5694 5696 5697 5699 5700 5699 5699 5700 5698 5698 5700 5699 5696 5693 5690 5687 5685 5680 5675 5671 5667 5663 5659 5657 5654 5652 5649 5648 5647
5663 5661 5660 5660 5661 5661 5663 5664 5665 5667 5669 5672 5674 5677 5679 5682 5684 5685 5687 5689 5690 5692 5692 5691 5693 5695 5694 5693 5690 5689 5686 5684 5681 5676 5671 5668 5665 5662 5659 5656 5654 5652 5652 5651
5651 5650 5648 5647 5646 5646 5647 5649 5651 5652 5654 5656 5660 5662 5664 5665 5666 5669 5673 5676 5678 5680 5680 5681 5684 5686 5687 5687 5686 5685 5684 5681 5678 5675 5672 5669 5666 5663 5660 5658 5656 5655 5653 5652
5638 5637 5636 5635 5635 5633 5633 5633 5635 5636 5638 5641 5643 5644 5645 5647 5649 5652 5656 5659 5661 5663 5666 5669 5673 5676 5678 5680 5679 5678 5678 5677 5675 5673 5671 5668 5665 5662 5659 5657 5656 5655 5654 5652
5623 5622 5622 5621 5621 5620 5619 5619 5620 5621 5623 5624 5625 5627 5628 5629 5632 5635 5638 5639 5640 5643 5649 5654 5659 5663 5666 5669 5670 5670 5670 5670 5670 5668 5666 5664 5662 5660 5658 5657 5655 5654 5653 5652
5607 5607 5607 5606 5606 5606 5605 5604 5605 5606 5606 5607 5608 5607 5608 5610 5613 5616 5619 5622 5624 5627 5632 5638 5642 5647 5651 5655 5658 5659 5661 5661 5662 5662 5661 5659 5658 5656 5655 5654 5653 5652 5652 5651
5593 5592 5592 5591 5591 5590 5589 5589 5589 5590 5590 5591 5591 5591 5592 5593 5595 5597 5598 5600 5604 5610 5615 5619 5623 5629 5634 5640 5643 5646 5648 5650 5651 5652 5652 5652 5651 5651 5650 5650 5650 5650 5649 5649
5578 5577 5577 5576 5575 5574 5574 5574 5574 5574 5574 5574 5573 5573 5573 5574 5575 5577 5580 5583 5586 5591 5595 5598 5603 5610 5616 5620 5624 5628 5631 5634 5636 5638 5640 5642 5643 5644 5644 5644 5644 5645 5645 5645
5565 5564 5563 5562 5561 5560 5559 5559 5558 5558 5557 5557 5557 5557 5556 5556 5558 5558 5559 5563 5567 5571 5573 5576 5582 5588 5593 5597 5601 5605 5610 5614 5618 5621 5624 5626 5629 5631 5633 5635 5635 5637 5638 5638
5552 5550 5549 5548 5547 5546 5545 5544 5543 5543 5542 5541 5541 5541 5540 5539 5538 5540 5542 5543 5546 5549 5551 5554 5559 5563 5566 5570 5574 5579 5584 5590 5595 5599 5603 5607 5611 5614 5618 5621 5623 5626 5627 5629
5538 5536 5536 5535 5533 5532 5531 5529 5528 5527 5526 5525 5525 5525 5524 5523 5523 5523 5523 5524 5525 5527 5528 5530 5533 5536 5539 5542 5547 5552 5557 5563 5569 5574 5580 5585 5590 5595 5599 5604 5608 5611 5615 5617
5525 5524 5523 5522 5522 5521 5518 5516 5514 5513 5512 5510 5509 5509 5508 5507 5506 5505 5504 5504 5504 5505 5506 5507 5509 5511 5513 5516 5520 5524 5529 5535 5541 5547 5554 5560 5566 5572 5578 5584 5589 5593 5598 5602